Regional Weather Roundup
Issued by NWS

Home | Current Version | Previous Version | Graphics & Text | Print | Product List | Glossary Off
Versions: 1 2 3 4 5 6 7 8 9 10 11 12 13 14 15 16 17 18 19 20 21 22 23 24 25 26 27 28 29 30 31 32 33 34 35 36 37 38 39 40 41 42 43 44 45 46 47 48 49 50

000
ASUS43 KMKX 032011
RWRWI

WISCONSIN REGIONAL WEATHER ROUNDUP
NATIONAL WEATHER SERVICE MILWAUKEE/SULLIVAN WI
300 PM CDT MON AUG 03 2015

NOTE: "FAIR" INDICATES FEW OR NO CLOUDS BELOW 12,000 FEET WITH NO
SIGNIFICANT WEATHER AND/OR OBSTRUCTIONS TO VISIBILITY.

WIZ001-002-006>008-014>016-023>028-032100-
NORTHWEST WISCONSIN

CITY           SKY/WX    TMP DP  RH WIND       PRES   REMARKS
SUPERIOR ARPT  CLOUDY    70  55  58 W12       29.84F
ASHLAND        PTSUNNY   71  54  54 W14G21    29.84R
HAYWARD        CLOUDY    69  52  54 VRB6      29.87S
SIREN          CLOUDY    74  48  40 NW14G21   29.88S
CUMBERLAND     PTSUNNY   70  48  46 NW16      29.89R
RICE LAKE      PTSUNNY   72  49  44 W14G20    29.89S
CHETEK         PTSUNNY   73  53  48 NW7       29.88S
LADYSMITH      CLOUDY    71  53  52 NW13      29.89R
EAU CLAIRE     PTSUNNY   78  49  35 W14G23    29.86F
MENOMONIE      MOSUNNY   78  45  30 NW15G24   29.88S
NEW RICHMOND   PTSUNNY   73  47  39 NW12      29.90S
OSCEOLA        CLOUDY    75  52  44 NW8       29.92F
$$

WIZ003>005-009-010-017-018-032100-
NORTH CENTRAL WISCONSIN

CITY           SKY/WX    TMP DP  RH WIND       PRES   REMARKS
MANITOWISH WTR CLOUDY    66  52  61 NW14      29.84S
ARBOR VITAE    PTSUNNY   65  51  60 NW13      29.85R
WOODRUFF       PTSUNNY   65  51  60 NW13      29.85R
RHINELANDER    CLOUDY    69  51  52 NW8       29.84S
EAGLE RIVER    CLOUDY    67  48  49 NW12      29.84R
LAND O LAKES   CLOUDY    64  49  59 NW9       29.85R
PHILLIPS       CLOUDY    65  54  65 NW5       29.86R
TOMAHAWK       PTSUNNY   70  52  53 NW14      29.85S
MEDFORD        CLOUDY    70  54  56 W12G17    29.87S
MERRILL        NOT AVBL
$$

WIZ029-030-035-036-043>047-032100-
CENTRAL WISCONSIN

CITY           SKY/WX    TMP DP  RH WIND       PRES   REMARKS
WAUSAU         PTSUNNY   74  50  42 NW14G24   29.83S
MOSINEE        NOT AVBL
MARSHFIELD     PTSUNNY   75  50  41 NW17G24   29.86R
STEVENS POINT  CLOUDY    73  50  44 W15       29.84F
WAUPACA        PTSUNNY   78  47  33 W14G22    29.82F
WAUTOMA        PTSUNNY   83  44  25 W18G24    29.83F HX  81
WISC RAPIDS    PTSUNNY   78  46  32 W16G24    29.85F
CAMP DOUGLAS   MOSUNNY   79  52  38 W17G25    29.85F
$$

WIZ011>013-019>022-031-037>040-048>050-032100-
NORTHEAST WISCONSIN

CITY           SKY/WX    TMP DP  RH WIND       PRES   REMARKS
ANTIGO         PTSUNNY   71  52  50 W14       29.84R
SHAWANO        CLOUDY    76  51  41 W10G17    29.80F
OCONTO         CLOUDY    75  51  43 W12G18    29.77S
STURGEON BAY   PTSUNNY   72  48  43 W9        29.80S
GREEN BAY      PTSUNNY   76  51  41 W13G21    29.80S
MANITOWOC      MOSUNNY   77  48  35 MISG      29.80S
APPLETON       PTSUNNY   75  45  33 W17G23    29.82S
CLINTONVILLE   PTSUNNY   77  46  33 NW18      29.80F
OSHKOSH        MOSUNNY   78  50  37 W15       29.81F
$$

WIZ032>034-041-042-053>061-032100-
SOUTHWEST WISCONSIN

CITY           SKY/WX    TMP DP  RH WIND       PRES   REMARKS
LA CROSSE      SUNNY     81  50  33 NW13      29.88S HX  80
SPARTA         PTSUNNY   79  44  29 W15G26    29.88S
VIROQUA        SUNNY     76  50  39 W12       29.90F
BOSCOBEL       SUNNY     84  51  31 NW14      29.88F HX  82
PRAIRIE DU CHI SUNNY     81  42  25 W16G22    29.89S
PLATTEVILLE    SUNNY     79  50  36 W15G23    29.90S
$$

WIZ056-057-062-063-064-067-068-032100-
SOUTH CENTRAL WISCONSIN

CITY           SKY/WX    TMP DP  RH WIND       PRES   REMARKS
REEDSBURG      SUNNY     80  48  32 W9G22     29.86F
BARABOO/DELLS  PTSUNNY   80  43  27 W14G25    29.86F
LONE ROCK      MOSUNNY   81  49  32 W14G21    29.87F HX  80
MINERAL POINT  SUNNY     79  45  29 W14       29.89F
MADISON        MOSUNNY   79  48  33 VRB7G21   29.85F
MIDDLETON      SUNNY     82  43  25 W15       29.87F HX  80
WATERTOWN      MOSUNNY   78  50  37 W16G22    29.84F
MONROE         SUNNY     79  45  29 NW9G20    29.89S
JANESVILLE     MOSUNNY   82  45  26 W18       29.86F HX  80
$$

WIZ051-052-058>065-066-070>072-032100-
SOUTHEAST WISCONSIN

CITY           SKY/WX    TMP DP  RH WIND       PRES   REMARKS
MILWAUKEE      MOSUNNY   80  45  28 NW21G30   29.83F
WAUKESHA       MOSUNNY   79  46  31 NW18G29   29.85F
MILWAUKEE/TIMM SUNNY     79  43  27 W22       29.83F
RACINE         SUNNY     80  47  31 W10       29.85F
BURLINGTON     SUNNY     79  43  28 NW15G22   29.85F
KENOSHA        SUNNY     78  49  35 NW14G26   29.85S
FOND DU LAC    SUNNY     79  50  36 NW14G23   29.82F
SHEBOYGAN      SUNNY     76  50  40 NW14G26   29.81F
WEST BEND      SUNNY     77  45  31 W15G22    29.83S
JUNEAU         MOSUNNY   76  50  40 W8G18     29.85S
$$

LSZ147-162-032100-
LAKE SUPERIOR

STATION/POSITION TIME  TEMP    WIND        PRES    WAVE
                       AIR SEA DIR/SP/G            HT/PER
                 (UTC) (F)     (DEG/KT/KT) (MB)    (FT/S)
W MID LAKE BUOY  1950   59 56  240/ 12/ 14 1008.4R   2/ 4
DEVILS ISLAND    2000   61     250/ 13/ 15 1009.5R
PORT WING        1900   65     270/  9/ 13 1010.8
SAXON HARBOR     1940   69     300/  8     1009.8R
$$

LMZ867-665-643>646-032100-
LAKE MICHIGAN

STATION/POSITION TIME  TEMP    WIND        PRES    WAVE
                       AIR SEA DIR/SP/G            HT/PER
                 (UTC) (F)     (DEG/KT/KT) (MB)    (FT/S)
CHAMBERS ISLAND  1900   72     210/  6/  9 1007.8F
S GREEN BAY BUOY 2000   71 72  260/ 10/ 12 1009.8F
N MID LAKE BUOY  1950   69 67  230/ 14/ 16 1007.2F   1/ 6
NORTHPORT PIER   1900   72     220/  7/ 13 1007.8S
SISTER BAY       1918   74     240/ 11/ 12   N/A
ALGOMA LAKESHORE 1812          270/  7/ 10   N/A
KEWAUNEE LAKESHO 1900   74     300/  9/ 13 1008.2F
SHEBOYGAN LAKESH 2000   74     290/ 15/ 18 1009.4F
PORT WASHINGTON  1900   78     310/ 10/ 22 1010.2F
ATWATER BUOY     2000   69 49  300/ 14/ 16 1011.2F
MILWAUKEE LAKESH 1900   76     300/ 13/ 22   N/A
KENOSHA   LAKESH 2000   78     280/ 15/ 22 1009.8F
$$

TC  - TEMPERATURE IN CELSIUS
VSB - VISIBILITY IN STATUTE MILES
WCI - WIND CHILL INDEX
HX  - HEAT INDEX



USA.gov is the U.S. government's official web portal to all federal, state and local government web resources and services.